This is the latest recevied weather packets stored in our database for station/object SP2WM. If no packets are shown the sender has not sent any weather packets the latest 10 day(s).
| Time | Temp. | Humidity | Pressure | Rain* | Wind** | Luminosity | Snow |
|---|---|---|---|---|---|---|---|
| 1778007038 | 14.44° C | 68% | 1005.4 hPa | 0 mm | - | - | - |
| 1778006427 | 14.44° C | 68% | 1005.2 hPa | 0 mm | - | - | - |
| 1778005824 | 14.44° C | 67% | 1005.2 hPa | 0 mm | - | - | - |
| 1778005244 | 14.44° C | 67% | 1004.9 hPa | 0 mm | - | - | - |
| 1778004628 | 15° C | 66% | 1005 hPa | 0 mm | - | - | - |
| 1778004031 | 15° C | 66% | 1004.9 hPa | 0 mm | - | - | - |
| 1778003429 | 15° C | 66% | 1004.8 hPa | 0 mm | - | - | - |
| 1778002836 | 15° C | 66% | 1004.9 hPa | 0 mm | - | - | - |
| 1778002235 | 15° C | 65% | 1004.9 hPa | 0 mm | - | - | - |
| 1778001629 | 15.56° C | 64% | 1005.2 hPa | 0 mm | - | - | - |
| 1778001040 | 16.11° C | 62% | 1005.1 hPa | 0 mm | - | - | - |
| 1778000438 | 16.67° C | 61% | 1004.9 hPa | 0 mm | - | - | - |
| 1777999834 | 17.22° C | 61% | 1004.9 hPa | 0 mm | - | - | - |
| 1777999242 | 17.78° C | 61% | 1004.8 hPa | 0 mm | - | - | - |
| 1777998632 | 18.33° C | 62% | 1004.8 hPa | 0 mm | - | - | - |
| 1777998027 | 18.33° C | 61% | 1004.8 hPa | 0 mm | - | - | - |
| 1777997433 | 18.89° C | 61% | 1004.8 hPa | 0 mm | - | - | - |
| 1777996830 | 19.44° C | 59% | 1004.8 hPa | 0 mm | - | - | - |
| 1777996226 | 20° C | 61% | 1004.8 hPa | 0 mm | - | - | - |
| 1777995632 | 20.56° C | 61% | 1004.8 hPa | 0 mm | - | - | - |
| 1777995030 | 21.11° C | 61% | 1004.7 hPa | 0 mm | - | - | - |
| 1777994426 | 21.67° C | 62% | 1004.8 hPa | 0 mm | - | - | - |
| 1777993834 | 21.67° C | 62% | 1004.7 hPa | 0 mm | - | - | - |
| 1777993233 | 22.78° C | 60% | 1004.7 hPa | 0 mm | - | - | - |
| 1777992631 | 22.78° C | 61% | 1004.7 hPa | 0 mm | - | - | - |
* Rain latest hour (hover to see other rain measurements)
** Current wind speed in m/s (hover to see current wind gust speed)